Retour au catalogue

OBJECT B

ActifSSO
NORAD 100130·UNKNOWN·🇨🇳 China

Lancé Jul 22, 2026 depuis Yellow Sea Launch Area

Loading…

Prochains Passages (prochaines 24 heures)

TLE

FraisSource: Space-Track

Époque: Sep 13, 2026, 19:04 UTC

1 A0130U 26168B   26256.79505581  .00003899  00000-0  24548-3 0  9993
2 A0130  97.5349 337.6026 0019556 145.0235 215.2283 15.09604810  8102

Suivez OBJECT B en temps réel avec AllMySat

Download on the App Store